Theta_e
292 292 291 291 291 292 291 291 292 292 292 292 292 293 293 294 295 296 297 297 298 298 298 298 298 299 299 300 301 302 302 303 304 305 307 308 309 310 313 314 316 318
291 291 291 291 290 290 290 291 290 290 290 290 291 292 293 293 293 294 295 295 296 296 297 298 298 298 298 299 299 299 300 302 302 305 305 305 306 308 309 310 311 313
289 289 289 289 289 289 289 289 289 289 289 289 290 290 291 292 291 292 292 293 294 295 295 296 296 297 298 298 298 298 299 300 301 303 304 304 306 306 307 308 309 310
287 288 288 288 288 288 288 287 287 287 288 288 288 289 289 290 290 290 291 291 292 293 294 295 296 296 296 296 296 297 298 298 300 301 302 304 305 307 307 308 308 308
286 286 287 287 287 287 287 286 286 286 286 287 287 287 287 287 288 288 289 290 291 292 293 294 295 295 296 296 296 296 296 296 298 298 299 300 302 304 306 307 308 308
285 285 285 285 285 285 285 284 285 285 285 285 285 286 286 287 287 287 288 288 289 290 290 291 292 294 295 295 296 296 296 296 296 297 297 297 298 300 302 303 304 306
283 283 283 284 283 284 283 283 283 284 284 284 285 284 285 285 286 286 287 288 288 288 288 289 290 291 293 295 295 294 295 296 297 297 296 296 297 298 299 300 301 302
281 282 282 282 282 282 282 282 282 282 283 283 283 284 284 284 284 285 286 287 287 287 287 288 289 290 292 293 293 293 294 295 296 296 296 297 297 297 297 298 299 299
280 280 281 280 280 280 280 281 281 281 282 281 282 282 283 283 284 284 285 286 285 286 286 287 288 290 292 292 293 293 293 294 294 294 294 294 295 295 296 297 297 298
279 279 279 279 279 279 279 280 280 280 281 281 281 282 282 283 283 284 284 284 284 284 285 286 287 289 290 292 293 292 291 291 291 292 292 293 293 294 294 295 295 295
278 278 278 278 278 278 278 279 279 279 280 280 280 280 281 281 282 284 284 284 284 284 284 285 286 287 288 290 289 289 289 289 290 290 290 291 292 293 294 294 294 294
276 276 276 276 277 277 277 278 278 278 279 279 280 279 280 281 281 282 283 283 284 284 285 285 286 287 288 287 287 288 289 289 289 289 289 289 290 291 292 293 293 294
276 276 276 276 276 276 276 277 277 278 278 278 279 279 279 280 281 282 283 283 283 284 284 285 286 287 287 286 287 288 288 289 289 289 289 289 289 290 291 292 293 294
275 275 275 275 276 276 276 276 276 276 277 278 278 278 279 279 280 281 282 282 283 283 284 285 285 286 286 286 287 287 288 288 288 288 288 288 289 290 291 291 292 293
275 274 274 275 275 275 275 275 276 276 276 277 277 278 279 279 280 280 281 281 282 283 283 284 285 285 285 286 287 287 288 288 288 288 288 288 288 289 290 291 291 292
274 274 273 274 274 274 274 275 275 275 276 276 276 276 277 278 279 279 280 280 280 281 282 283 284 285 285 287 288 288 288 288 288 288 288 288 288 288 289 290 291 291
273 273 273 273 273 273 273 274 274 275 275 275 276 276 276 277 278 278 278 279 279 280 280 282 283 284 286 288 288 289 288 288 287 287 287 287 287 288 287 288 289 290
272 272 272 273 273 273 273 273 273 273 274 274 274 275 276 276 276 277 277 278 279 279 279 280 282 284 286 287 288 288 289 288 287 287 287 286 286 287 287 287 288 289
272 272 272 272 272 272 273 273 273 273 273 273 274 274 275 275 276 276 276 277 278 278 278 279 280 283 286 287 287 288 288 288 287 286 286 286 286 286 286 287 287 288
271 271 271 271 272 272 272 272 272 272 273 273 274 274 274 274 274 275 275 276 277 277 278 279 279 283 285 286 287 288 288 287 286 286 286 286 286 286 286 286 287 287
271 271 271 271 271 271 271 271 272 272 272 272 273 273 273 273 273 273 274 275 276 277 277 278 279 283 284 285 286 287 287 286 285 286 285 285 285 285 286 286 287 288
270 270 270 270 270 270 270 270 271 271 271 272 272 272 273 273 273 273 273 274 275 276 276 277 278 282 283 284 285 286 286 284 284 283 283 284 284 285 286 286 287 287
270 270 270 270 270 270 270 270 270 270 270 271 271 271 271 271 271 272 273 274 274 275 275 276 277 279 282 284 284 284 284 283 283 282 283 283 284 285 285 286 286 285
269 269 269 269 269 269 269 269 270 270 270 271 270 270 270 271 271 272 273 273 274 274 275 275 276 278 282 283 283 283 283 281 282 282 282 283 283 284 284 284 284 285
268 268 268 268 268 268 268 268 269 269 269 270 270 270 270 271 271 271 272 273 273 274 276 276 276 278 281 281 282 282 282 281 281 281 281 281 281 282 282 283 283 283
267 266 267 267 267 267 268 268 269 269 269 269 269 270 270 270 271 271 271 272 273 274 275 275 276 277 278 280 281 281 282 281 281 280 279 279 280 280 280 281 281 281
Wind_Speed
7 6 6 6 6 5 5 5 5 5 5 5 5 5 5 5 6 6 6 6 5 6 6 6 6 6 6 6 6 6 4 4 4 4 4 4 4 4 4 4 5 5
7 7 6 6 6 5 6 6 5 5 5 5 5 5 5 6 6 6 6 6 6 6 6 7 7 6 6 6 7 6 6 6 5 4 4 4 4 4 5 5 5 5
7 7 7 7 6 7 6 6 6 5 5 5 5 5 5 5 6 6 6 6 6 7 6 6 7 7 7 7 6 5 6 6 7 7 6 5 5 5 5 5 5 5
7 7 7 7 7 6 5 5 6 5 5 5 6 5 5 4 5 6 6 6 6 5 5 5 6 6 7 7 7 6 6 6 6 6 6 6 6 6 6 5 5 5
7 7 6 6 6 6 5 6 6 6 6 5 5 5 5 5 6 6 6 6 6 6 6 6 6 6 7 6 6 6 6 7 7 7 7 7 6 7 6 6 6 6
7 6 6 7 6 6 6 7 6 6 6 6 6 5 5 5 5 5 6 6 6 6 6 7 7 6 6 6 6 6 6 6 6 7 7 7 7 7 6 7 7 7
7 7 7 6 8 7 8 7 6 6 6 5 4 6 5 5 6 6 6 6 5 6 7 7 7 7 6 6 6 7 6 6 6 7 6 6 6 8 7 8 8 8
7 6 6 6 7 7 8 7 6 6 6 5 6 6 6 6 6 5 5 6 6 6 6 6 6 6 7 6 7 7 7 6 7 8 7 6 6 6 7 7 7 8
6 6 6 7 8 7 7 6 6 6 5 6 6 6 6 6 6 6 6 6 6 6 6 6 7 6 6 7 7 8 8 7 7 8 8 8 8 8 8 8 8 7
7 5 7 7 8 6 7 6 5 5 5 5 5 5 6 6 6 6 6 6 6 6 7 6 7 6 6 6 8 8 8 8 7 7 7 8 8 8 9 8 8 9
6 5 6 7 7 5 6 5 5 5 5 5 5 6 5 5 6 5 5 6 7 8 7 7 7 7 6 7 8 8 7 7 7 7 7 8 8 8 8 8 8 9
5 5 6 5 5 5 5 5 5 5 5 5 5 5 5 5 5 5 5 6 6 6 6 7 6 6 6 9 8 8 8 7 7 7 7 7 7 7 7 7 8 9
5 5 5 5 4 4 4 4 5 5 5 5 4 4 5 5 5 5 5 5 5 6 6 7 7 7 7 8 8 8 8 8 8 8 8 7 6 7 8 8 8 8
4 3 4 4 4 4 4 4 4 4 5 4 4 5 6 6 5 5 5 4 5 4 5 6 6 6 7 8 9 8 8 8 8 8 9 8 7 7 8 8 8 8
3 3 3 3 4 4 5 5 5 4 4 4 4 5 4 4 4 4 4 5 4 5 5 4 5 5 6 9 9 9 9 8 8 8 9 8 8 8 7 7 8 8
3 3 3 3 3 4 4 4 4 5 5 6 6 5 5 5 5 4 4 5 4 4 4 4 4 4 8 13 11 8 8 7 7 8 8 8 9 9 8 8 8 8
3 3 3 5 3 4 3 3 4 3 4 5 5 5 6 6 5 6 6 6 5 5 5 4 4 4 11 12 12 13 9 8 8 8 7 7 7 8 9 10 9 9
4 4 5 5 4 5 4 3 3 4 5 4 4 5 5 4 5 5 5 5 5 5 4 5 4 8 12 13 13 14 11 8 7 6 7 7 7 8 8 8 9 9
3 4 4 4 4 4 4 4 6 6 7 7 6 5 3 5 5 5 5 4 4 5 4 4 4 9 12 14 14 14 15 11 6 7 7 8 7 7 7 7 7 8
3 4 5 4 3 3 3 4 6 6 5 4 4 5 5 5 5 6 6 5 5 5 4 3 3 8 13 14 13 14 15 12 6 7 6 7 6 7 7 7 7 7
2 2 4 4 3 2 3 4 4 3 4 4 4 5 5 6 6 7 6 6 6 6 5 5 4 11 13 14 14 15 16 12 6 6 6 6 6 6 7 7 7 7
0 2 3 3 4 3 4 4 3 4 4 3 3 3 3 3 3 3 5 6 6 6 6 6 5 12 13 13 14 15 16 8 7 8 7 7 7 7 7 7 6 7
1 0 2 3 4 4 4 3 3 3 3 3 3 3 3 3 3 3 4 5 6 6 6 7 5 10 13 12 13 15 12 7 8 7 8 8 8 8 8 8 8 8
2 1 0 2 3 4 4 3 3 2 3 3 3 3 3 3 3 3 3 4 5 5 6 6 6 9 11 11 13 14 13 8 8 8 9 8 8 8 8 9 10 14
2 2 2 2 3 4 4 4 3 4 3 3 3 2 3 3 3 3 3 3 4 4 7 6 6 7 9 10 12 12 10 7 7 8 9 9 10 10 9 8 9 9
3 3 2 2 4 3 4 4 3 3 4 4 4 4 4 3 3 3 3 3 3 4 4 5 5 4 5 10 9 10 11 7 6 7 8 10 10 10 12 11 10 10
Wind_Direction
77 78 78 76 68 55 56 59 51 58 50 36 37 29 22 12 0 3 4 8 9 12 6 4 2 2 357 354 352 346 343 324 315 303 301 297 286 282 282 283 284 285
76 77 81 81 76 67 62 59 59 62 58 45 33 24 17 11 8 7 7 6 8 12 7 3 3 3 2 1 354 354 346 344 333 322 316 308 292 289 282 278 275 281
79 78 75 74 75 69 67 63 61 56 60 54 44 36 23 14 11 12 13 9 10 7 7 2 2 4 3 1 359 358 356 350 346 336 330 318 308 299 286 281 279 272
77 77 80 80 76 76 70 69 57 54 54 51 43 35 28 20 15 15 13 15 15 6 3 8 14 8 4 358 360 3 357 357 348 341 339 333 328 318 307 295 283 281
80 77 76 79 77 78 76 68 58 50 47 46 42 34 29 19 22 17 14 9 9 6 9 10 12 14 10 7 4 3 2 356 351 353 350 342 337 335 326 320 309 299
73 72 70 70 68 69 65 60 54 48 44 41 34 31 30 22 28 24 16 14 9 11 11 9 8 3 7 13 12 13 4 357 354 356 352 347 338 338 335 332 326 318
75 71 67 67 67 61 62 54 48 43 40 32 28 36 22 21 26 22 17 14 14 17 16 10 7 3 1 13 16 13 9 1 357 357 353 346 342 341 343 341 336 328
81 77 75 73 72 61 60 52 44 38 32 22 35 26 22 19 20 15 16 15 21 16 15 8 5 3 9 15 15 13 11 5 358 356 352 351 353 348 348 345 338 332
85 79 79 74 72 64 61 55 48 41 30 33 28 21 18 21 12 14 13 17 21 19 10 10 4 4 7 15 16 11 6 5 2 357 352 349 348 345 343 339 340 339
79 79 75 71 69 62 62 53 50 43 36 39 34 21 23 15 15 11 14 15 20 15 14 5 5 2 4 9 16 12 8 1 359 356 352 347 343 340 338 341 342 338
78 73 79 74 75 70 67 60 52 49 38 38 33 31 24 18 16 14 18 19 16 10 4 6 2 359 355 16 19 9 1 357 356 357 351 345 340 338 339 338 337 337
84 79 74 74 75 72 68 61 58 48 47 42 36 32 28 25 20 16 20 19 11 8 6 6 3 356 13 20 6 360 359 356 353 350 349 342 336 332 332 332 331 330
82 82 86 84 77 73 66 64 58 51 46 40 31 36 35 24 17 18 14 22 7 10 11 9 9 13 22 10 2 357 357 351 348 347 343 342 336 331 331 334 331 327
77 76 76 79 83 79 74 69 62 57 51 44 40 38 32 24 13 12 6 14 8 15 8 11 12 17 15 5 358 355 353 349 346 344 338 335 334 332 335 332 329 329
114 96 86 84 73 67 60 51 50 51 49 47 46 41 32 22 15 8 15 15 13 12 9 7 19 16 13 359 354 353 352 346 345 340 336 334 334 333 327 330 333 329
113 104 98 93 76 69 65 58 53 47 41 38 33 27 21 15 15 12 20 16 12 12 11 11 14 14 352 355 355 351 347 346 343 340 338 337 333 331 332 333 330 328
86 82 86 73 69 74 70 67 60 60 60 54 41 29 18 11 5 9 12 1 5 1 3 7 4 350 352 356 355 353 350 345 342 341 339 336 333 335 334 330 328 327
67 60 58 49 46 45 45 50 57 58 54 49 44 33 24 14 12 11 359 352 353 353 354 349 347 339 352 353 354 353 351 347 341 339 337 336 336 332 326 324 321 321
78 75 69 56 42 36 32 34 38 39 34 27 25 11 9 16 8 2 356 349 346 348 348 338 341 331 348 350 349 350 350 351 345 340 335 332 323 317 315 317 315 315
96 99 94 80 60 50 42 45 48 43 30 16 4 5 11 6 1 357 348 347 343 339 332 331 329 330 346 346 346 346 349 350 338 332 323 317 315 313 314 309 310 312
79 99 106 102 93 79 61 57 54 47 40 15 20 7 3 357 353 347 339 334 332 329 328 334 331 338 345 344 345 346 346 348 335 331 324 316 313 309 304 304 306 310
64 125 117 111 105 95 79 64 52 44 42 13 28 3 355 346 343 328 324 322 320 322 324 327 330 339 340 342 345 347 346 344 343 335 329 320 313 308 305 303 304 307
333 317 122 117 111 99 83 69 58 36 36 9 31 1 0 352 329 323 312 314 314 316 317 315 328 328 334 341 347 347 348 345 339 333 325 320 316 315 315 315 315 316
344 339 34 93 95 86 76 62 54 45 37 9 22 350 352 335 314 315 310 302 308 311 308 310 320 317 329 343 346 347 348 342 333 329 322 319 320 323 323 317 314 314
353 356 12 39 72 69 68 56 34 25 5 7 1 342 331 313 315 310 302 300 288 289 297 301 301 306 332 339 342 343 344 337 332 323 325 329 328 323 320 315 313 311
4 5 8 34 56 62 60 45 25 29 12 8 357 349 333 332 325 308 307 300 294 292 293 291 293 306 329 333 337 336 338 337 326 333 329 325 324 322 319 318 315 311